TimeMST,TemperatureF,Dew PointF,Humidity,Sea Level PressureIn,VisibilityMPH,Wind Direction,Wind SpeedMPH,Gust SpeedMPH,PrecipitationIn,Events,Conditions,WindDirDegrees,DateUTC
1:15 AM,44.6,19.4,37,30.04,10.0,ENE,4.6,-,N/A,,Clear,60,2013-01-10 08:15:00
1:35 AM,44.6,19.4,37,30.03,10.0,NE,5.8,-,N/A,,Clear,40,2013-01-10 08:35:00
1:55 AM,46.4,19.4,34,30.03,10.0,NE,4.6,-,N/A,,Clear,40,2013-01-10 08:55:00
2:15 AM,48.2,17.6,30,30.02,10.0,NNE,5.8,-,N/A,,Clear,30,2013-01-10 09:15:00
2:55 AM,46.4,17.6,32,30.02,10.0,SE,3.5,-,N/A,,Clear,140,2013-01-10 09:55:00
3:15 AM,44.6,17.6,34,30.02,10.0,Calm,Calm,-,N/A,,Clear,0,2013-01-10 10:15:00
3:35 AM,46.4,17.6,32,30.01,10.0,East,3.5,-,N/A,,Clear,100,2013-01-10 10:35:00
3:55 AM,44.6,17.6,34,30.00,10.0,Calm,Calm,-,N/A,,Clear,0,2013-01-10 10:55:00
4:15 AM,44.6,17.6,34,30.00,10.0,Calm,Calm,-,N/A,,Clear,0,2013-01-10 11:15:00
4:35 AM,44.6,17.6,34,29.98,10.0,ESE,3.5,-,N/A,,Clear,110,2013-01-10 11:35:00
4:55 AM,46.4,17.6,32,29.97,10.0,Calm,Calm,-,N/A,,Clear,0,2013-01-10 11:55:00
5:15 AM,44.6,17.6,34,29.97,10.0,Calm,Calm,-,N/A,,Clear,0,2013-01-10 12:15:00
5:55 AM,46.4,17.6,32,29.95,10.0,Calm,Calm,-,N/A,,Clear,0,2013-01-10 12:55:00
6:15 AM,46.4,17.6,32,29.95,10.0,Calm,Calm,-,N/A,,Clear,0,2013-01-10 13:15:00
6:35 AM,44.6,17.6,34,29.95,10.0,South,5.8,-,N/A,,Clear,170,2013-01-10 13:35:00
6:55 AM,44.6,17.6,34,29.95,10.0,South,4.6,-,N/A,,Clear,190,2013-01-10 13:55:00
7:15 AM,44.6,17.6,34,29.94,10.0,West,3.5,-,N/A,,Clear,280,2013-01-10 14:15:00
7:35 AM,42.8,17.6,36,29.94,10.0,West,3.5,-,N/A,,Clear,270,2013-01-10 14:35:00
8:15 AM,44.6,17.6,34,29.95,10.0,SW,4.6,-,N/A,,Clear,220,2013-01-10 15:15:00
8:55 AM,46.4,19.4,34,29.96,10.0,NNW,8.1,-,N/A,,Clear,330,2013-01-10 15:55:00
9:15 AM,44.6,19.4,37,29.97,10.0,Calm,Calm,-,N/A,,Clear,0,2013-01-10 16:15:00
9:35 AM,46.4,19.4,34,29.96,10.0,South,3.5,-,N/A,,Clear,180,2013-01-10 16:35:00
9:55 AM,46.4,19.4,34,29.95,10.0,SSE,8.1,-,N/A,,Clear,160,2013-01-10 16:55:00
10:15 AM,46.4,19.4,34,29.94,10.0,SSW,4.6,-,N/A,,Clear,200,2013-01-10 17:15:00
10:35 AM,46.4,19.4,34,29.93,10.0,Calm,Calm,-,N/A,,Clear,0,2013-01-10 17:35:00
10:55 AM,48.2,19.4,32,29.92,10.0,WSW,6.9,-,N/A,,Clear,240,2013-01-10 17:55:00
11:15 AM,50.0,19.4,30,29.91,10.0,South,10.4,16.1,N/A,,Clear,170,2013-01-10 18:15:00
11:35 AM,50.0,21.2,32,29.89,10.0,SSE,17.3,25.3,N/A,,Clear,160,2013-01-10 18:35:00
11:55 AM,51.8,21.2,30,29.87,10.0,South,19.6,28.8,N/A,,Scattered Clouds,180,2013-01-10 18:55:00
12:15 PM,51.8,19.4,28,29.85,10.0,South,23.0,33.4,N/A,,Scattered Clouds,170,2013-01-10 19:15:00
12:35 PM,51.8,21.2,30,29.85,10.0,SSE,15.0,29.9,N/A,,Mostly Cloudy,160,2013-01-10 19:35:00
12:55 PM,51.8,21.2,30,29.84,10.0,SSE,12.7,21.9,N/A,,Overcast,150,2013-01-10 19:55:00
1:15 PM,50.0,21.2,32,29.83,10.0,South,15.0,26.5,N/A,,Overcast,190,2013-01-10 20:15:00
1:35 PM,50.0,21.2,32,29.83,10.0,South,13.8,24.2,N/A,,Overcast,170,2013-01-10 20:35:00
1:55 PM,50.0,21.2,32,29.81,10.0,South,15.0,23.0,N/A,,Overcast,180,2013-01-10 20:55:00
2:15 PM,50.0,19.4,30,29.81,10.0,South,16.1,21.9,N/A,,Overcast,170,2013-01-10 21:15:00
2:35 PM,50.0,19.4,30,29.81,10.0,South,15.0,23.0,N/A,,Overcast,190,2013-01-10 21:35:00
3:15 PM,50.0,19.4,30,29.78,10.0,SSE,19.6,31.1,N/A,,Overcast,160,2013-01-10 22:15:00
3:35 PM,50.0,19.4,30,29.78,10.0,South,20.7,34.5,N/A,,Overcast,170,2013-01-10 22:35:00
3:55 PM,50.0,21.2,32,29.78,10.0,South,21.9,28.8,N/A,,Overcast,180,2013-01-10 22:55:00
4:15 PM,50.0,21.2,32,29.77,10.0,South,19.6,32.2,N/A,,Overcast,170,2013-01-10 23:15:00
4:35 PM,48.2,21.2,34,29.77,10.0,SSE,19.6,34.5,N/A,,Overcast,160,2013-01-10 23:35:00
4:55 PM,48.2,21.2,34,29.77,10.0,SSE,19.6,32.2,N/A,,Overcast,160,2013-01-10 23:55:00
5:15 PM,48.2,21.2,34,29.78,10.0,South,16.1,34.5,N/A,,Overcast,180,2013-01-11 00:15:00
5:35 PM,46.4,21.2,37,29.77,10.0,SW,13.8,25.3,N/A,,Overcast,220,2013-01-11 00:35:00
5:55 PM,46.4,21.2,37,29.76,10.0,SSW,25.3,33.4,N/A,,Overcast,210,2013-01-11 00:55:00
6:15 PM,46.4,23.0,40,29.76,10.0,SSW,23.0,27.6,N/A,,Overcast,200,2013-01-11 01:15:00
6:35 PM,44.6,24.8,46,29.76,10.0,South,13.8,23.0,N/A,,Overcast,190,2013-01-11 01:35:00
6:55 PM,44.6,26.6,49,29.75,10.0,South,16.1,23.0,N/A,,Overcast,190,2013-01-11 01:55:00
7:35 PM,44.6,28.4,53,29.73,10.0,South,13.8,31.1,N/A,,Overcast,180,2013-01-11 02:35:00
7:55 PM,42.8,30.2,61,29.72,10.0,South,19.6,27.6,N/A,,Overcast,180,2013-01-11 02:55:00
8:15 PM,42.8,32.0,66,29.70,10.0,South,21.9,34.5,N/A,,Overcast,170,2013-01-11 03:15:00
8:35 PM,42.8,32.0,66,29.71,10.0,South,17.3,24.2,N/A,,Overcast,190,2013-01-11 03:35:00
9:35 PM,42.8,32.0,66,29.70,10.0,SSW,17.3,31.1,N/A,,Overcast,210,2013-01-11 04:35:00
10:35 PM,37.4,28.4,70,29.72,10.0,West,16.1,27.6,N/A,,Overcast,270,2013-01-11 05:35:00
10:55 PM,37.4,28.4,70,29.73,10.0,West,23.0,28.8,N/A,,Overcast,280,2013-01-11 05:55:00
11:15 PM,35.6,28.4,75,29.74,10.0,West,17.3,23.0,N/A,,Overcast,280,2013-01-11 06:15:00
11:35 PM,35.6,26.6,70,29.74,10.0,West,15.0,24.2,N/A,,Overcast,270,2013-01-11 06:35:00
11:55 PM,33.8,26.6,75,29.74,10.0,WNW,18.4,28.8,N/A,,Overcast,300,2013-01-11 06:55:00